Weather History for Milwaukee Timmerman, WI

Change the Weather History Date:

Thursday, April 17, 2014

  Actual Average Record
Temperature  
Mean Temperature 45 °F -  
Max Temperature 53 °F 59 °F 84 °F (1976)
Min Temperature 37 °F 38 °F 22 °F (1983)
Degree Days  
Heating Degree Days 20    
Moisture  
Dew Point 31 °F    
Average Humidity 61    
Maximum Humidity 71    
Minimum Humidity 50    
Precipitation  
Precipitation 0.00 in - - ()
Sea Level Pressure  
Sea Level Pressure 30.17 in    
Wind  
Wind Speed 10 mph (South)    
Max Wind Speed 18 mph    
Max Gust Speed 26 mph    
Visibility 10 miles    
Events      
Averages and records for this station are not official NWS values.
T = Trace of Precipitation, MM = Missing Value Source: NWS Daily Summary

Daily Weather History Graph

Daily Weather History Graph

Search for Another Location

Airport:

Trip Planner

Search our weather history database for the weather conditions in past years. The results will help you decide how hot, cold, wet, or windy it might be!

Date:

Astronomy

Apr. 17, 2014 Rise Set
Actual Time 6:06 AM CDT 7:37 PM CDT
Civil Twilight 5:37 AM CDT 8:07 PM CDT
Nautical Twilight 5:01 AM CDT 8:43 PM CDT
Astronomical Twilight 4:23 AM CDT 9:21 PM CDT
Moon 10:25 PM CDT (4/17) 7:35 AM CDT (4/17)
Length of Visible Light 14h 29m
Length of Day
13h 30m
Waning Gibbous, 93% of the Moon is Illuminated
Apr 17
Waning Gibbous
Apr 22
Last Quarter
Apr 29
New
May 6
First Quarter
May 14
Full

Hourly Weather History & Observations

Time (CDT) Temp. Windchill Dew Point Humidity Pressure Visibility Wind Dir Wind Speed Gust Speed Precip Events Conditions
12:15 AM 41.0 °F 34.7 °F 26.6 °F 57% 30.15 in 10.0 mi SE 10.4 mph 16.1 mph N/A   Clear
12:35 AM 41.0 °F 33.9 °F 26.6 °F 57% 30.15 in 10.0 mi SE 12.7 mph 20.7 mph N/A   Scattered Clouds
12:55 AM 41.0 °F 33.9 °F 26.6 °F 57% 30.14 in 10.0 mi SSE 12.7 mph 19.6 mph N/A   Clear
1:15 AM 41.0 °F 34.7 °F 26.6 °F 57% 30.15 in 10.0 mi SE 10.4 mph - N/A   Clear
1:35 AM 41.0 °F 34.3 °F 26.6 °F 57% 30.14 in 10.0 mi SSE 11.5 mph 16.1 mph N/A   Clear
1:55 AM 41.0 °F 34.3 °F 26.6 °F 57% 30.14 in 10.0 mi SE 11.5 mph 16.1 mph N/A   Clear
2:15 AM 41.0 °F 34.7 °F 26.6 °F 57% 30.14 in 10.0 mi SE 10.4 mph 17.3 mph N/A   Scattered Clouds
2:35 AM 41.0 °F 35.2 °F 26.6 °F 57% 30.13 in 10.0 mi SE 9.2 mph - N/A   Overcast
2:55 AM 41.0 °F 35.2 °F 26.6 °F 57% 30.12 in 10.0 mi SE 9.2 mph 13.8 mph N/A   Overcast
3:15 AM 41.0 °F 34.7 °F 26.6 °F 57% 30.13 in 10.0 mi SE 10.4 mph 18.4 mph N/A   Overcast
3:35 AM 41.0 °F 34.3 °F 26.6 °F 57% 30.12 in 10.0 mi SE 11.5 mph 20.7 mph N/A   Overcast
3:55 AM 39.2 °F 32.0 °F 28.4 °F 65% 30.12 in 10.0 mi SE 11.5 mph - N/A   Overcast
4:15 AM 39.2 °F 31.6 °F 28.4 °F 65% 30.11 in 10.0 mi SE 12.7 mph 17.3 mph N/A   Overcast
4:35 AM 39.2 °F 33.0 °F 28.4 °F 65% 30.10 in 10.0 mi SE 9.2 mph 18.4 mph N/A   Overcast
4:55 AM 37.4 °F 30.8 °F 28.4 °F 70% 30.09 in 10.0 mi SE 9.2 mph - N/A   Overcast
5:15 AM 37.4 °F 29.3 °F 28.4 °F 70% 30.09 in 10.0 mi SE 12.7 mph 16.1 mph N/A   Overcast
5:35 AM 37.4 °F 30.3 °F 28.4 °F 70% 30.09 in 10.0 mi SE 10.4 mph - N/A   Overcast
5:55 AM 37.4 °F 30.8 °F 28.4 °F 70% 30.08 in 10.0 mi SE 9.2 mph - N/A   Overcast
6:15 AM 37.4 °F 29.8 °F 28.4 °F 70% 30.08 in 10.0 mi SSE 11.5 mph - N/A   Overcast
6:35 AM 39.2 °F 33.0 °F 28.4 °F 65% 30.08 in 10.0 mi SE 9.2 mph - N/A   Overcast
6:45 AM 39.2 °F 31.2 °F 28.4 °F 65% - 10.0 mi SSE 13.8 mph - N/A   Overcast
7:45 AM 41.0 °F 34.3 °F 28.4 °F 61% - 10.0 mi SSE 11.5 mph - N/A   Scattered Clouds
8:45 AM 44.6 °F 40.2 °F 30.2 °F 57% - 10.0 mi South 8.1 mph - N/A   Overcast
9:45 AM 50.0 °F - 33.8 °F 54% - 10.0 mi SW 18.4 mph 26.5 mph N/A   Mostly Cloudy
10:45 AM 51.8 °F - 33.8 °F 50% - 10.0 mi WSW 16.1 mph 23.0 mph N/A   Scattered Clouds
11:45 AM 50.0 °F - 35.6 °F 58% - 10.0 mi WSW 13.8 mph 20.7 mph N/A   Overcast
12:45 PM 51.8 °F - 35.6 °F 54% - 10.0 mi WSW 13.8 mph 20.7 mph N/A   Overcast
1:45 PM 50.0 °F - 35.6 °F 58% - 10.0 mi WSW 8.1 mph 20.7 mph N/A   Overcast
2:45 PM 51.8 °F - 35.6 °F 54% 30.20 in 10.0 mi WSW 13.8 mph - N/A   Mostly Cloudy
3:45 PM 51.8 °F - 35.6 °F 54% 30.21 in 10.0 mi West 10.4 mph 17.3 mph N/A   Scattered Clouds
4:45 PM 53.6 °F - 35.6 °F 51% 30.21 in 10.0 mi West 9.2 mph - N/A   Scattered Clouds
5:45 PM 53.6 °F - 35.6 °F 51% 30.21 in 10.0 mi West 11.5 mph - N/A   Clear
6:45 PM 53.6 °F - 35.6 °F 51% 30.21 in 10.0 mi West 5.8 mph - N/A   Clear
7:45 PM 50.0 °F - 35.6 °F 58% 30.22 in 10.0 mi Calm Calm - N/A   Clear
8:45 PM 50.0 °F - 35.6 °F 58% 30.24 in 10.0 mi Calm Calm - N/A   Mostly Cloudy
9:15 PM 48.2 °F - 35.6 °F 62% 30.25 in 10.0 mi NW 6.9 mph - N/A   Overcast
9:35 PM 46.4 °F 42.4 °F 35.6 °F 66% 30.25 in 10.0 mi NW 8.1 mph - N/A   Mostly Cloudy
9:55 PM 46.4 °F 42.9 °F 35.6 °F 66% 30.25 in 10.0 mi NNW 6.9 mph - N/A   Clear
10:15 PM 44.6 °F 39.2 °F 35.6 °F 71% 30.26 in 10.0 mi NNW 10.4 mph - N/A   Scattered Clouds
10:35 PM 44.6 °F 40.7 °F 33.8 °F 66% 30.26 in 10.0 mi NNW 6.9 mph - N/A   Scattered Clouds
10:55 PM 42.8 °F 40.1 °F 33.8 °F 70% 30.26 in 10.0 mi NNW 4.6 mph - N/A   Mostly Cloudy
11:15 PM 42.8 °F 38.6 °F 33.8 °F 70% 30.26 in 10.0 mi NNW 6.9 mph - N/A   Overcast
11:55 PM 42.8 °F 38.0 °F 33.8 °F 70% 30.27 in 10.0 mi North 8.1 mph - N/A   Overcast